TimeEST,TemperatureF,Dew PointF,Humidity,Sea Level PressureIn,VisibilityMPH,Wind Direction,Wind SpeedMPH,Gust SpeedMPH,PrecipitationIn,Events,Conditions,WindDirDegrees,DateUTC
12:19 AM,33.8,28.4,81,29.73,3.0,West,11.5,-,N/A,,Overcast,270,2014-01-12 05:19:00
12:51 AM,33.8,28.4,81,29.73,5.0,West,10.4,-,N/A,,Overcast,280,2014-01-12 05:51:00
12:53 AM,33.1,28.9,85,29.75,5.0,West,9.2,-,N/A,,Overcast,270,2014-01-12 05:53:00
1:53 AM,34.0,28.9,82,29.77,6.0,West,12.7,-,N/A,,Haze,280,2014-01-12 06:53:00
2:53 AM,33.1,28.9,85,29.81,5.0,West,11.5,-,N/A,,Overcast,270,2014-01-12 07:53:00
3:53 AM,33.1,27.0,78,29.84,8.0,West,13.8,-,N/A,,Overcast,280,2014-01-12 08:53:00
4:53 AM,33.1,27.0,78,29.87,6.0,West,12.7,-,N/A,,Haze,270,2014-01-12 09:53:00
5:53 AM,32.0,26.1,79,29.87,6.0,WSW,9.2,-,N/A,,Haze,250,2014-01-12 10:53:00
6:53 AM,32.0,26.1,79,29.89,7.0,WSW,10.4,-,N/A,,Overcast,240,2014-01-12 11:53:00
7:38 AM,30.2,26.6,86,29.87,8.0,SW,10.4,-,N/A,,Overcast,230,2014-01-12 12:38:00
7:53 AM,30.9,26.1,82,29.91,8.0,SW,11.5,-,N/A,,Overcast,230,2014-01-12 12:53:00
8:53 AM,30.9,26.1,82,29.94,6.0,SW,12.7,-,N/A,,Haze,230,2014-01-12 13:53:00
9:53 AM,30.9,27.0,85,29.96,5.0,SSW,11.5,-,N/A,,Overcast,200,2014-01-12 14:53:00
10:12 AM,30.2,26.6,86,29.95,5.0,SSW,16.1,-,N/A,,Haze,210,2014-01-12 15:12:00
10:53 AM,32.0,27.0,82,29.98,7.0,South,15.0,-,N/A,,Overcast,190,2014-01-12 15:53:00
11:53 AM,32.0,28.0,85,29.95,8.0,South,13.8,-,N/A,,Overcast,180,2014-01-12 16:53:00
12:53 PM,33.1,28.0,82,29.91,6.0,South,15.0,-,N/A,,Haze,170,2014-01-12 17:53:00
1:05 PM,33.8,28.4,81,29.87,7.0,South,11.5,-,N/A,,Scattered Clouds,180,2014-01-12 18:05:00
1:53 PM,35.1,28.0,76,29.87,8.0,South,15.0,-,N/A,,Clear,190,2014-01-12 18:53:00
2:53 PM,35.1,28.0,76,29.86,10.0,South,10.4,-,N/A,,Clear,170,2014-01-12 19:53:00
3:53 PM,36.0,28.0,73,29.83,10.0,South,15.0,-,N/A,,Clear,170,2014-01-12 20:53:00
4:53 PM,37.0,27.0,67,29.82,10.0,South,16.1,-,N/A,,Clear,170,2014-01-12 21:53:00
5:53 PM,37.9,28.0,68,29.80,10.0,South,20.7,27.6,N/A,,Clear,170,2014-01-12 22:53:00
6:53 PM,39.0,28.9,67,29.78,10.0,South,18.4,24.2,N/A,,Clear,170,2014-01-12 23:53:00
7:53 PM,39.9,30.0,68,29.75,10.0,South,20.7,26.5,N/A,,Clear,170,2014-01-13 00:53:00
8:53 PM,41.0,30.0,65,29.75,10.0,South,19.6,31.1,N/A,,Clear,190,2014-01-13 01:53:00
9:53 PM,41.0,30.0,65,29.75,10.0,South,17.3,24.2,N/A,,Clear,190,2014-01-13 02:53:00
10:53 PM,41.0,30.0,65,29.75,10.0,South,13.8,-,N/A,,Clear,190,2014-01-13 03:53:00
11:53 PM,42.1,30.0,62,29.73,10.0,South,16.1,-,N/A,,Clear,190,2014-01-13 04:53:00